EXS8UB EGNT-LGZA

Flight info

Callsign EXS8UB
Flight time N/A
Altitude 35000
Route NATEB DCT ERLOT DCT ACAGE DCT TOPPA DCT OTMEC DCT DODEN/N0437F370 DCT NEGIX DCT DINKU M867 XERUM DCT BAVAX DCT RADIZ DCT EVAXI DCT DARZA DCT RUGOG DCT RASTU DCT DEPET DCT UNIPA DCT VAKSU DCT RODON DCT LIMJA DCT PITAS/N0419F330 UN732 KRK UT321 ASTUS
Aircraft B738/M-SDE2E3FGHIRWXY/LB1

Departure

Time 2026-05-04 08:20
Airport Newcastle International Airport (EGNT)

Arrival

Time N/A
Airport Zakynthos International Airport Dionysios Solomos (LGZA)
Time Latitude Longitude Altitude Speed Heading
2026-05-04 08:03 55.03960 -1.70518 266 ft 0 kts 274°
2026-05-04 08:10 55.03982 -1.70376 266 ft 1 kts 183°
2026-05-04 08:14 55.03976 -1.70377 266 ft 3 kts 184°
2026-05-04 08:16 55.03843 -1.69474 255 ft 27 kts 66°
2026-05-04 08:16 55.03923 -1.69171 252 ft 27 kts 65°
2026-05-04 08:16 55.03999 -1.68883 250 ft 25 kts 65°
2026-05-04 08:17 55.04070 -1.68612 248 ft 24 kts 65°
2026-05-04 08:17 55.04139 -1.68360 247 ft 23 kts 64°
2026-05-04 08:17 55.04203 -1.68114 246 ft 22 kts 64°
2026-05-04 08:17 55.04267 -1.67876 246 ft 21 kts 65°
2026-05-04 08:19 55.03655 -1.69499 256 ft 148 kts 245°
2026-05-04 08:19 55.03172 -1.71282 644 ft 164 kts 245°
2026-05-04 08:20 55.02703 -1.73017 1590 ft 154 kts 243°
2026-05-04 08:20 55.02241 -1.74723 2305 ft 160 kts 249°
2026-05-04 08:20 55.02211 -1.76703 2941 ft 172 kts 290°
2026-05-04 08:20 55.02986 -1.78319 3676 ft 182 kts 329°
2026-05-04 08:21 55.04242 -1.78797 4472 ft 192 kts
2026-05-04 08:21 55.05463 -1.77811 5169 ft 203 kts 41°
2026-05-04 08:21 55.06278 -1.75716 5644 ft 215 kts 62°
2026-05-04 08:21 55.06982 -1.73332 6106 ft 226 kts 60°
2026-05-04 08:22 55.07725 -1.70866 6613 ft 234 kts 60°
2026-05-04 08:22 55.08488 -1.68326 7155 ft 243 kts 61°
2026-05-04 08:24 55.12825 -1.44936 10871 ft 338 kts 70°
2026-05-04 08:24 55.13537 -1.41202 11368 ft 348 kts 70°
2026-05-04 08:24 55.14286 -1.37245 12056 ft 352 kts 70°
2026-05-04 08:24 55.15055 -1.33153 12814 ft 356 kts 71°
2026-05-04 08:25 55.15830 -1.29009 13536 ft 361 kts 71°
2026-05-04 08:25 55.16612 -1.24807 14200 ft 366 kts 71°
2026-05-04 08:25 55.17400 -1.20557 14882 ft 369 kts 71°
2026-05-04 08:25 55.18188 -1.16296 15584 ft 371 kts 71°
2026-05-04 08:26 55.18984 -1.11983 16263 ft 374 kts 71°
2026-05-04 08:27 55.24427 -0.82215 20387 ft 394 kts 71°
2026-05-04 08:28 55.25259 -0.77621 20961 ft 396 kts 71°
2026-05-04 08:28 55.26096 -0.72992 21536 ft 399 kts 71°
2026-05-04 08:28 55.26934 -0.68348 22065 ft 402 kts 70°
2026-05-04 08:28 55.27754 -0.63621 22546 ft 408 kts 75°
2026-05-04 08:29 55.28036 -0.58651 23063 ft 414 kts 92°
2026-05-04 08:29 55.27535 -0.53665 23641 ft 418 kts 107°
2026-05-04 08:29 55.26417 -0.48946 24082 ft 421 kts 113°
2026-05-04 08:31 55.17766 -0.15924 27081 ft 434 kts 112°
2026-05-04 08:33 55.08879 0.18160 29620 ft 449 kts 111°
2026-05-04 08:33 55.07573 0.23123 29954 ft 450 kts 111°
2026-05-04 08:35 54.97665 0.56768 32888 ft 443 kts 127°
2026-05-04 08:35 54.95650 0.60814 33258 ft 442 kts 128°
2026-05-04 08:35 54.93635 0.64797 33516 ft 444 kts 128°
2026-05-04 08:35 54.91594 0.68823 33807 ft 444 kts 128°
2026-05-04 08:37 54.79457 0.93028 35040 ft 448 kts 128°
2026-05-04 08:37 54.77416 0.97103 35061 ft 449 kts 128°
2026-05-04 08:38 54.73330 1.05235 35050 ft 444 kts 129°
2026-05-04 08:38 54.69296 1.13234 35056 ft 440 kts 129°
2026-05-04 08:40 54.53160 1.44977 35060 ft 445 kts 130°
2026-05-04 08:41 54.49062 1.52973 35052 ft 446 kts 130°
2026-05-04 08:41 54.44950 1.60972 35046 ft 447 kts 130°
2026-05-04 08:42 54.40820 1.68979 35055 ft 448 kts 131°
2026-05-04 08:42 54.36672 1.76987 35060 ft 450 kts 131°
2026-05-04 08:43 54.32505 1.85009 35044 ft 451 kts 131°
2026-05-04 08:43 54.28328 1.93025 35040 ft 451 kts 131°
2026-05-04 08:44 54.24167 2.00984 35047 ft 452 kts 131°
2026-05-04 08:46 54.07407 2.32783 35032 ft 448 kts 133°
2026-05-04 08:46 54.03237 2.40631 35039 ft 446 kts 133°
2026-05-04 08:47 53.99069 2.48447 35033 ft 446 kts 133°
2026-05-04 08:47 53.94903 2.56237 35014 ft 445 kts 134°
2026-05-04 08:48 53.90739 2.63998 35008 ft 444 kts 134°